Home > Weather > Barcelona > Past weeks

Flag for Spain Weather for the Past 2 Weeks in Barcelona, Barcelona, Spain

Now
63 °F

Passing clouds.


Feels Like: 63 °F
Forecast: 45 / 71 °F
Wind: 8 mph from Southeast

Location: Barcelona Airport

Current Time: May 3, 2016 at 3:23:26 PM

Latest Report: May 3, 2016 at 3:00 PM


Visibility: N/A

Pressure: 30.18 "Hg

Humidity: 77%

Dew Point: 55 °F

Location of BarcelonaLocation

Historic Weather in Barcelona — Graph

°F

Barcelona Temperature Yesterday

Maximum temperature yesterday: 72 °F (at 4:00 PM)
Minimum temperature yesterday: 48 °F (at 7:00 AM)
Average temperature yesterday: 60 °F

High & Low Weather Summary for the Past Weeks

 TemperatureHumidityPressure
High72 °F (May 2, 4:00 PM)100% (Apr 30, 9:00 AM)30.18 "Hg (Apr 30, 9:00 AM)
Low46 °F (May 1, 6:00 AM)12% (May 1, 6:30 PM)29.83 "Hg (Apr 26, 5:30 PM)
Average58 °F69%30.03 "Hg
* Reported Apr 18 2:00 PM — May 3 2:00 PM, Barcelona, Weather by CustomWeather, © 2016

Note: Actual official high and low records may vary slightly from our data, if they occured in-between our weather recording intervals... More about our weather records

Advertising

Barcelona Weather History for the Previous 24 Hours

Scroll right to see more
 ConditionsComfort  
Time TempWeatherWind HumidityBarometerVisibility
2:00 PM
Tue, May 3
64 °FPassing clouds.6 mph68%30.18 "HgN/A
1:30 PM63 °FPassing clouds.7 mph73%30.18 "HgN/A
1:00 PM63 °FPassing clouds.9 mph73%30.18 "HgN/A
12:30 PM63 °FPassing clouds.10 mph73%30.18 "HgN/A
12:00 PM63 °FSunny.10 mph68%30.18 "Hg10 mi
11:30 AM64 °FPassing clouds.10 mph52%30.18 "HgN/A
11:00 AM64 °FPassing clouds.8 mph52%30.18 "HgN/A
10:30 AM64 °FPassing clouds.6 mph43%30.18 "HgN/A
10:00 AM63 °FPassing clouds.9 mph45%30.18 "HgN/A
9:30 AM59 °FPassing clouds.12 mph51%30.15 "HgN/A
9:00 AM57 °FPassing clouds.12 mph55%30.15 "HgN/A
8:30 AM55 °FSunny.9 mph59%30.15 "Hg10 mi
8:00 AM54 °FPassing clouds.13 mph63%30.15 "HgN/A
7:30 AM52 °FPassing clouds.8 mph67%30.15 "HgN/A
7:00 AM52 °FClear.9 mph72%30.15 "Hg10 mi
6:30 AM52 °FClear.8 mph72%30.15 "Hg10 mi
6:00 AM52 °FClear.9 mph72%30.15 "Hg10 mi
5:30 AM52 °FClear.9 mph77%30.15 "Hg10 mi
5:00 AM54 °FClear.7 mph72%30.15 "Hg10 mi
4:30 AM54 °FClear.7 mph77%30.15 "Hg10 mi
3:30 AM54 °FClear.6 mph77%30.15 "Hg10 mi
3:00 AM55 °FClear.5 mph82%30.15 "Hg10 mi
2:30 AM55 °FClear.3 mph82%30.15 "Hg10 mi
2:00 AM55 °FPassing clouds.5 mph82%30.15 "HgN/A
1:30 AM57 °FClear.8 mph77%30.15 "Hg10 mi
1:00 AM54 °FPassing clouds.7 mph88%30.15 "HgN/A
12:00 AM59 °FClear.No wind77%30.15 "Hg10 mi
11:30 PM
Mon, May 2
61 °FClear.1 mph72%30.15 "Hg10 mi
11:00 PM61 °FPassing clouds.6 mph68%30.12 "HgN/A
10:30 PM59 °FPassing clouds.5 mph77%30.12 "HgN/A
10:00 PM61 °FClear.5 mph72%30.09 "Hg10 mi
9:30 PM61 °FSunny.3 mph72%30.09 "Hg10 mi
9:00 PM61 °FSunny.17 mph68%30.07 "Hg10 mi
8:30 PM63 °FSunny.18 mph64%30.07 "Hg10 mi
8:00 PM64 °FSunny.17 mph60%30.04 "Hg10 mi
7:30 PM66 °FSunny.18 mph52%30.04 "Hg10 mi
7:00 PM68 °FSunny.18 mph43%30.04 "Hg10 mi
6:30 PM68 °FSunny.18 mph46%30.04 "Hg10 mi
6:00 PM68 °FSunny.20 mph46%30.04 "Hg10 mi
5:30 PM70 °FSunny.21 mph35%30.04 "Hg10 mi
5:00 PM70 °FSunny.20 mph43%30.04 "Hg10 mi
4:30 PM70 °FSunny.17 mph40%30.04 "Hg10 mi
4:00 PM72 °FSunny.14 mph38%30.04 "Hg10 mi
3:30 PM70 °FSunny.17 mph38%30.04 "Hg10 mi
3:00 PM70 °FSunny.15 mph40%30.04 "Hg10 mi
Weather by CustomWeather, © 2016

See weather overviewHow to use our weather pages